Tracking 30995 objects as of 6-Jul-2025
HD Live streaming from Space Station
objects crossing your sky now

CZ-4B R/B

Track CZ-4B R/B now!
10-day predictions


NORAD ID: 37181
Int'l Code: 2010-051C
Perigee: 476.6 km
Apogee: 584.6 km
Inclination: 97.8 °
Period: 95.1 minutes
Semi major axis: 6901 km
RCS: 6.051 m2 (large)
Launch date: October 6, 2010
Source: People's Republic of China (PRC)
Launch site: Taiyaun Space Center, China (TSC)

Note: This is a ROCKET BODY
Your satellite tracking list
Your tracking list is empty




NASA's NSSDC Master Catalog

Two Line Element Set (TLE):
1 37181U 10051C   25186.59678785  .00002568  00000-0  13447-3 0  9997
2 37181  97.8281 216.6057 0078260 223.8568 135.6432 15.14189606806123
Source of the keplerian elements: AFSPC